Weather History for KBGE - December, 2012

Change the Weather History Date:

Tuesday, December 11, 2012

  Actual Average (KMAI) Record (KMAI)
Temperature  
Mean Temperature 58 °F 53 °F  
Max Temperature 69 °F 65 °F 81 °F (2007)
Min Temperature 48 °F 42 °F 30 °F (2010)
Degree Days  
Heating Degree Days 6    
Month to date heating degree days  
Since 1 July heating degree days  
Cooling Degree Days 0    
Month to date cooling degree days  
Year to date cooling degree days  
Growing Degree Days 8 (Base 50)    
Moisture  
Dew Point 53 °F    
Average Humidity 87    
Maximum Humidity 94    
Minimum Humidity 77    
Precipitation  
Precipitation 0.00 in 0.14 in 2.31 in (2008)
Month to date precipitation 1.54  
Year to date precipitation 51.21  
Sea Level Pressure  
Sea Level Pressure 29.99 in    
Wind  
Wind Speed 6 mph (NNW)    
Max Wind Speed 13 mph    
Max Gust Speed 17 mph    
Visibility 10 miles    
Events Rain    
T = Trace of Precipitation, MM = Missing Value Source: NWS Daily Summary

Daily Weather History Graph

Daily Weather History Graph

Search for Another Location

Airport or City:

Trip Planner

Search our weather history database for the weather conditions in past years. The results will help you decide how hot, cold, wet, or windy it might be!

Date:

Astronomy

Dec. 11, 2012 Rise Set
Actual Time 7:26 AM EST 5:37 PM EST
Civil Twilight 7:00 AM EST 6:03 PM EST
Nautical Twilight 6:30 AM EST 6:34 PM EST
Astronomical Twilight 6:00 AM EST 7:03 PM EST
Moon 5:24 AM EST (12/11) 4:12 PM EST (12/11)
Length of Visible Light 11h 03m
Length of Day
10h 10m
Waning Crescent, 4% of the Moon is Illuminated
Dec 11
Waning Crescent
Dec 13
New
Dec 20
First Quarter
Dec 28
Full
Jan 4
Last Quarter

Hourly Weather History & Observations

Time (EST) Temp. Dew Point Humidity Pressure Visibility Wind Dir Wind Speed Gust Speed Precip Events Conditions
12:15 AM 69.8 °F 66.2 °F 88% 29.85 in 10.0 mi West 6.9 mph - N/A   Mostly Cloudy
12:35 AM 69.8 °F 64.4 °F 83% 29.85 in 10.0 mi WNW 5.8 mph - N/A   Overcast
12:55 AM 68.0 °F 62.6 °F 83% 29.85 in 10.0 mi West 3.5 mph - N/A   Overcast
1:15 AM 68.0 °F 62.6 °F 83% 29.85 in 10.0 mi Calm Calm - N/A   Overcast
1:35 AM 68.0 °F 62.6 °F 83% 29.85 in 10.0 mi WNW 5.8 mph - N/A   Mostly Cloudy
1:55 AM 66.2 °F 62.6 °F 88% 29.85 in 10.0 mi West 4.6 mph - N/A   Mostly Cloudy
2:15 AM 66.2 °F 62.6 °F 88% 29.85 in 10.0 mi WNW 4.6 mph - N/A   Overcast
2:35 AM 68.0 °F 62.6 °F 83% 29.85 in 10.0 mi WNW 9.2 mph - N/A   Overcast
2:55 AM 66.2 °F 62.6 °F 88% 29.85 in 10.0 mi WNW 8.1 mph - N/A   Overcast
3:15 AM 64.4 °F 62.6 °F 94% 29.85 in 10.0 mi WNW 6.9 mph - N/A   Mostly Cloudy
3:35 AM 64.4 °F 60.8 °F 88% 29.86 in 10.0 mi NNW 10.4 mph - N/A   Overcast
3:55 AM 62.6 °F 59.0 °F 88% 29.87 in 10.0 mi NW 10.4 mph - N/A   Overcast
4:15 AM 62.6 °F 59.0 °F 88% 29.88 in 10.0 mi WNW 12.7 mph 17.3 mph N/A   Overcast
4:35 AM 59.0 °F 55.4 °F 88% 29.88 in 10.0 mi NW 10.4 mph - N/A   Overcast
4:55 AM 59.0 °F 55.4 °F 88% 29.88 in 10.0 mi NW 10.4 mph - N/A   Overcast
5:15 AM 59.0 °F 55.4 °F 88% 29.89 in 10.0 mi NNW 11.5 mph - N/A   Overcast
5:35 AM 59.0 °F 55.4 °F 88% 29.90 in 10.0 mi NNW 8.1 mph - N/A   Overcast
5:55 AM 59.0 °F 53.6 °F 82% 29.92 in 10.0 mi NNW 9.2 mph - N/A   Overcast
6:15 AM 57.2 °F 53.6 °F 88% 29.93 in 10.0 mi NNW 5.8 mph - N/A   Overcast
6:35 AM 57.2 °F 53.6 °F 88% 29.93 in 10.0 mi NNW 6.9 mph - N/A   Overcast
7:15 AM 57.2 °F 53.6 °F 88% 29.95 in 10.0 mi NNW 4.6 mph - N/A   Overcast
7:35 AM 57.2 °F 53.6 °F 88% 29.95 in 10.0 mi North 6.9 mph - N/A   Overcast
7:55 AM 57.2 °F 53.6 °F 88% 29.97 in 10.0 mi NNW 4.6 mph - N/A   Overcast
8:15 AM 57.2 °F 53.6 °F 88% 29.98 in 10.0 mi North 8.1 mph - N/A   Overcast
8:35 AM 57.2 °F 53.6 °F 88% 29.99 in 10.0 mi NW 6.9 mph - N/A   Overcast
8:55 AM 57.2 °F 53.6 °F 88% 30.00 in 10.0 mi NNW 6.9 mph - N/A   Overcast
9:15 AM 57.2 °F 53.6 °F 88% 29.99 in 10.0 mi North 8.1 mph - N/A   Overcast
9:35 AM 57.2 °F 53.6 °F 88% 30.02 in 10.0 mi NNW 8.1 mph - N/A   Overcast
9:55 AM 57.2 °F 53.6 °F 88% 30.02 in 10.0 mi North 6.9 mph - N/A   Overcast
10:15 AM 57.2 °F 51.8 °F 82% 30.01 in 10.0 mi North 8.1 mph - N/A   Overcast
10:35 AM 57.2 °F 51.8 °F 82% 30.01 in 10.0 mi NNE 4.6 mph - N/A   Overcast
10:55 AM 57.2 °F 51.8 °F 82% 30.03 in 10.0 mi North 8.1 mph - N/A   Overcast
11:15 AM 57.2 °F 51.8 °F 82% 30.03 in 10.0 mi NNW 6.9 mph - N/A   Overcast
11:35 AM 57.2 °F 51.8 °F 82% 30.03 in 10.0 mi NNW 6.9 mph - N/A   Overcast
11:55 AM 57.2 °F 51.8 °F 82% 30.03 in 10.0 mi NNW 4.6 mph - N/A   Overcast
12:15 PM 57.2 °F 51.8 °F 82% 30.02 in 10.0 mi North 5.8 mph - N/A   Overcast
12:35 PM 57.2 °F 51.8 °F 82% 30.03 in 10.0 mi North 5.8 mph - N/A   Overcast
12:55 PM 57.2 °F 51.8 °F 82% 30.02 in 10.0 mi NNW 6.9 mph - N/A   Overcast
1:15 PM 57.2 °F 51.8 °F 82% 30.01 in 10.0 mi North 5.8 mph - N/A   Overcast
1:35 PM 57.2 °F 51.8 °F 82% 30.00 in 10.0 mi North 8.1 mph - N/A   Overcast
1:55 PM 57.2 °F 50.0 °F 77% 30.01 in 10.0 mi NNW 6.9 mph - N/A   Overcast
2:15 PM 57.2 °F 50.0 °F 77% 30.00 in 10.0 mi North 4.6 mph - N/A   Overcast
2:35 PM 57.2 °F 50.0 °F 77% 30.01 in 10.0 mi North 3.5 mph - N/A   Overcast
2:55 PM 57.2 °F 50.0 °F 77% 30.01 in 10.0 mi NNW 5.8 mph - N/A   Mostly Cloudy
3:15 PM 57.2 °F 50.0 °F 77% 30.01 in 10.0 mi North 4.6 mph - N/A   Mostly Cloudy
3:35 PM 57.2 °F 51.8 °F 82% 30.02 in 10.0 mi North 3.5 mph - N/A   Light Drizzle
3:55 PM 57.2 °F 51.8 °F 82% 30.03 in 10.0 mi Calm Calm - N/A Rain Light Rain
4:15 PM 53.6 °F 50.0 °F 88% 30.02 in 10.0 mi North 3.5 mph - N/A Rain Light Rain
4:35 PM 53.6 °F 50.0 °F 88% 30.02 in 10.0 mi Calm Calm - N/A   Mostly Cloudy
4:55 PM 53.6 °F 51.8 °F 94% 30.03 in 10.0 mi NNW 6.9 mph - N/A   Overcast
5:15 PM 53.6 °F 51.8 °F 94% 30.03 in 10.0 mi North 4.6 mph - N/A Rain Light Rain
5:35 PM 53.6 °F 51.8 °F 94% 30.03 in 10.0 mi North 4.6 mph - N/A Rain Light Rain
5:55 PM 53.6 °F 51.8 °F 94% 30.04 in 10.0 mi NNW 5.8 mph - N/A Rain Light Rain
6:15 PM 53.6 °F 50.0 °F 88% 30.04 in 7.0 mi NW 6.9 mph - N/A Rain Rain
6:35 PM 53.6 °F 50.0 °F 88% 30.04 in 10.0 mi NNW 4.6 mph - N/A Rain Light Rain
6:55 PM 51.8 °F 50.0 °F 94% 30.02 in 10.0 mi NE 4.6 mph - N/A Rain Light Rain
7:15 PM 51.8 °F 50.0 °F 94% 30.05 in 10.0 mi NW 3.5 mph - N/A Rain Light Rain
7:35 PM 51.8 °F 50.0 °F 94% 30.04 in 10.0 mi North 4.6 mph - N/A   Mostly Cloudy
7:55 PM 51.8 °F 50.0 °F 94% 30.06 in 10.0 mi Calm Calm - N/A Rain Light Rain
8:15 PM 51.8 °F 50.0 °F 94% 30.07 in 10.0 mi Calm Calm - N/A Rain Light Rain
8:35 PM 51.8 °F 50.0 °F 94% 30.07 in 10.0 mi North 8.1 mph - N/A Rain Light Rain
8:55 PM 51.8 °F 50.0 °F 94% 30.08 in 10.0 mi NNW 4.6 mph - N/A Rain Rain
9:15 PM 51.8 °F 50.0 °F 94% 30.10 in 10.0 mi NW 5.8 mph - N/A Rain Rain
9:35 PM 51.8 °F 50.0 °F 94% 30.11 in 7.0 mi NNW 3.5 mph - N/A Rain Light Rain
9:55 PM 50.0 °F 48.2 °F 94% 30.14 in 7.0 mi WNW 8.1 mph - N/A Rain Light Rain
10:15 PM 50.0 °F 46.4 °F 87% 30.12 in 7.0 mi NW 5.8 mph - N/A Rain Light Rain
10:35 PM 50.0 °F 46.4 °F 87% 30.12 in 10.0 mi North 6.9 mph - N/A Rain Light Rain
11:15 PM 48.2 °F 46.4 °F 93% 30.14 in 7.0 mi NW 6.9 mph - N/A Rain Light Rain
11:35 PM 48.2 °F 46.4 °F 93% 30.14 in 7.0 mi NNW 4.6 mph - N/A Rain Light Rain
11:55 PM 48.2 °F 46.4 °F 93% 30.15 in 7.0 mi NNW 5.8 mph - N/A Rain Rain